GW0881 Weather Reports


Display with metric or nautical units.
time (UTC)temp
F
wind
direction
speed
MPH
gust
MPH
rain 1hr
in
rain 24hr
in
rain mn
in
humidity
%
barometer
mb
20260902031712 67 220 0.0 0.0 0.00 0.00 0.00 88 1012.4
20260902031207 67 220 0.0 0.0 0.00 0.00 0.00 88 1012.3
20260902030702 68 220 0.0 0.0 0.00 0.00 0.00 88 1012.2
20260902030202 68 220 0.0 0.0 0.00 0.00 0.00 88 1012.2
20260902025656 68 220 0.0 0.0 0.00 0.00 0.00 88 1011.9
20260902025151 68 220 0.0 0.0 0.00 0.00 0.00 88 1011.9
20260902024647 68 220 0.0 0.0 0.00 0.00 0.00 87 1012.0
20260902024142 68 220 0.0 0.0 0.00 0.00 0.00 87 1011.8
20260902023637 69 220 0.0 0.0 0.00 0.00 0.00 87 1011.9
20260902023132 68 220 0.0 0.0 0.00 0.00 0.00 86 1011.8
20260902022631 69 220 0.0 0.0 0.00 0.00 0.00 86 1011.7
20260902022127 69 220 0.0 0.0 0.00 0.00 0.00 86 1011.8
20260902021622 69 220 0.0 0.0 0.00 0.00 0.00 86 1011.8
20260902021117 69 221 0.0 0.0 0.00 0.00 0.00 85 1011.8
20260902020613 70 221 0.0 0.0 0.00 0.00 0.00 85 1011.9
20260902020109 70 221 0.0 0.0 0.00 0.00 0.00 84 1011.8
20260902015604 71 221 0.0 0.0 0.00 0.00 0.00 84 1011.6
20260902015100 71 221 0.0 1.0 0.00 0.00 0.00 83 1011.7
20260902014556 71 221 1.0 1.0 0.00 0.00 0.00 82 1011.7
20260902014051 71 222 1.0 1.0 0.00 0.00 0.00 81 1011.6
20260902013550 71 223 0.0 0.0 0.00 0.00 0.00 82 1011.5
20260902013046 71 224 0.0 0.0 0.00 0.00 0.00 81 1011.5
20260902012542 72 223 0.0 0.0 0.00 0.00 0.00 81 1011.4
20260902012037 73 223 0.0 0.0 0.00 0.00 0.00 80 1011.4
20260902011532 73 223 0.0 1.0 0.00 0.00 0.00 79 1011.5
20260902011032 73 223 0.0 0.0 0.00 0.00 0.00 78 1011.5
20260902010531 74 223 0.0 0.0 0.00 0.00 0.00 78 1011.2
20260902010027 74 224 0.0 0.0 0.00 0.00 0.00 78 1011.3
20260902005525 74 223 0.0 0.0 0.00 0.00 0.00 76 1011.4
20260902005022 75 228 0.0 0.0 0.00 0.00 0.00 76 1011.1
20260902004521 75 233 0.0 0.0 0.00 0.00 0.00 76 1011.1
20260902004016 76 234 0.0 0.0 0.00 0.00 0.00 74 1011.3
20260902003511 76 234 0.0 0.0 0.00 0.00 0.00 68 1011.3
20260902003007 75 234 0.0 0.0 0.00 0.00 0.00 69 1011.4
20260902002502 75 234 0.0 0.0 0.00 0.00 0.00 71 1011.5
20260902001956 75 236 0.0 0.0 0.00 0.00 0.00 73 1011.5
20260902001450 76 262 1.0 1.0 0.00 0.00 0.00 75 1011.4
20260902000946 77 233 0.0 0.0 0.00 0.00 0.00 67 1011.2
20260902000444 77 233 0.0 0.0 0.00 0.00 0.00 70 1011.6
20260901235936 78 240 0.0 0.0 0.00 0.00 0.00 65 1011.5
20260901235431 78 240 0.0 0.0 0.00 0.00 0.00 63 1011.6
20260901234926 79 240 0.0 0.0 0.00 0.00 0.00 64 1011.6
20260901234420 79 240 0.0 0.0 0.00 0.00 0.00 61 1011.8
20260901233915 79 240 0.0 0.0 0.00 0.00 0.00 60 1011.6
20260901233410 79 240 0.0 0.0 0.00 0.00 0.00 62 1011.6
20260901232906 79 240 0.0 0.0 0.00 0.00 0.00 65 1011.7
20260901232401 80 240 0.0 0.0 0.00 0.00 0.00 62 1011.5
20260901231856 80 240 0.0 0.0 0.00 0.00 0.00 61 1011.6
20260901231352 80 240 0.0 0.0 0.00 0.00 0.00 60 1011.5
20260901230849 80 240 0.0 1.0 0.00 0.00 0.00 58 1011.5
20260901230348 80 241 1.0 1.0 0.00 0.00 0.00 56 1011.6
20260901225844 80 240 0.0 0.0 0.00 0.00 0.00 58 1011.5
20260901225343 81 243 1.0 1.0 0.00 0.00 0.00 55 1011.6
20260901224838 81 241 1.0 1.0 0.00 0.00 0.00 57 1011.4
20260901224334 81 273 2.0 3.0 0.00 0.00 0.00 54 1011.6
20260901223831 81 241 0.0 0.0 0.00 0.00 0.00 58 1011.5
20260901223326 81 275 2.0 2.0 0.00 0.00 0.00 56 1011.6
20260901222821 80 250 1.0 1.0 0.00 0.00 0.00 58 1011.4
20260901222318 80 248 1.0 1.0 0.00 0.00 0.00 58 1011.6
20260901221813 80 241 0.0 1.0 0.00 0.00 0.00 59 1011.5
20260901221309 81 241 0.0 0.0 0.00 0.00 0.00 66 1011.7
20260901220808 81 241 0.0 0.0 0.00 0.00 0.00 60 1011.5
20260901220302 81 241 0.0 0.0 0.00 0.00 0.00 57 1011.5
20260901215801 81 241 0.0 0.0 0.00 0.00 0.00 56 1011.8
20260901215300 81 241 0.0 0.0 0.00 0.00 0.00 58 1011.5
20260901214759 81 241 0.0 1.0 0.00 0.00 0.00 53 1011.8
20260901214258 82 243 0.0 1.0 0.00 0.00 0.00 54 1011.9
20260901213753 82 243 0.0 1.0 0.00 0.00 0.00 52 1011.8
20260901213252 82 248 1.0 1.0 0.00 0.00 0.00 51 1011.5
20260901212752 82 244 1.0 1.0 0.00 0.00 0.00 53 1011.5
20260901212248 82 243 0.0 0.0 0.00 0.00 0.00 51 1011.3
20260901211743 82 244 0.0 1.0 0.00 0.00 0.00 51 1011.5
20260901211239 82 254 1.0 1.0 0.00 0.00 0.00 49 1011.6
20260901210735 82 240 1.0 1.0 0.00 0.00 0.00 52 1011.6
20260901210231 82 240 0.0 1.0 0.00 0.00 0.00 50 1011.5
20260901205727 83 240 0.0 1.0 0.00 0.00 0.00 49 1011.3
20260901205226 83 240 0.0 0.0 0.00 0.00 0.00 50 1011.3
20260901204722 83 240 0.0 0.0 0.00 0.00 0.00 47 1011.4
20260901204218 83 240 0.0 1.0 0.00 0.00 0.00 47 1011.4
20260901203713 83 240 0.0 0.0 0.00 0.00 0.00 59 1011.5
20260901203207 84 240 0.0 0.0 0.00 0.00 0.00 49 1011.8
20260901202707 84 240 1.0 1.0 0.00 0.00 0.00 51 1011.8
20260901202203 84 241 1.0 1.0 0.00 0.00 0.00 45 1012.0
20260901201659 84 242 0.0 0.0 0.00 0.00 0.00 47 1011.9
20260901201157 84 241 0.0 0.0 0.00 0.00 0.00 47 1011.8
20260901200657 84 248 1.0 1.0 0.00 0.00 0.00 48 1012.0
20260901200152 84 242 1.0 1.0 0.00 0.00 0.00 47 1012.0
20260901195649 84 241 1.0 1.0 0.00 0.00 0.00 47 1012.1
20260901195144 84 244 0.0 0.0 0.00 0.00 0.00 46 1011.9
20260901194640 83 247 0.0 0.0 0.00 0.00 0.00 45 1011.9
20260901194135 83 277 2.0 2.0 0.00 0.00 0.00 47 1012.0
20260901193631 84 249 1.0 1.0 0.00 0.00 0.00 46 1012.3
20260901193125 83 249 0.0 0.0 0.00 0.00 0.00 48 1012.2
20260901192620 83 251 0.0 1.0 0.00 0.00 0.00 50 1012.2
20260901192115 83 251 0.0 0.0 0.00 0.00 0.00 47 1012.2
20260901191611 83 252 1.0 1.0 0.00 0.00 0.00 46 1012.2
20260901191107 82 255 1.0 1.0 0.00 0.00 0.00 46 1011.9
20260901190603 82 252 1.0 1.0 0.00 0.00 0.00 50 1012.0
20260901190101 83 252 0.0 1.0 0.00 0.00 0.00 49 1012.0
20260901185600 83 273 1.0 2.0 0.00 0.00 0.00 47 1012.3
20260901185059 83 32 1.0 1.0 0.00 0.00 0.00 45 1012.4
20260901184554 84 182 1.0 1.0 0.00 0.00 0.00 52 1012.4
20260901184049 83 230 0.0 0.0 0.00 0.00 0.00 46 1012.2
20260901183544 83 253 1.0 2.0 0.00 0.00 0.00 50 1012.3
20260901183040 83 243 1.0 1.0 0.00 0.00 0.00 49 1012.2
20260901182536 83 206 0.0 1.0 0.00 0.00 0.00 51 1012.3
20260901182035 83 201 0.0 0.0 0.00 0.00 0.00 49 1012.4
20260901181535 82 221 0.0 0.0 0.00 0.00 0.00 49 1012.5
20260901181029 81 52 2.0 2.0 0.00 0.00 0.00 52 1012.6
20260901180527 82 54 1.0 3.0 0.00 0.00 0.00 56 1012.6
20260901180022 82 262 1.0 1.0 0.00 0.00 0.00 57 1012.6
20260901175516 81 234 1.0 1.0 0.00 0.00 0.00 53 1012.7
20260901175011 81 217 0.0 0.0 0.00 0.00 0.00 51 1012.9
20260901174507 81 216 0.0 0.0 0.00 0.00 0.00 52 1012.8
20260901174002 81 170 1.0 1.0 0.00 0.00 0.00 50 1012.7
20260901173457 81 66 3.0 3.0 0.00 0.00 0.00 52 1012.9
20260901172953 81 316 1.0 1.0 0.00 0.00 0.00 55 1013.0
20260901172449 81 257 1.0 1.0 0.00 0.00 0.00 52 1013.0
20260901171946 82 252 1.0 1.0 0.00 0.00 0.00 52 1013.2
20260901171445 81 202 1.0 1.0 0.00 0.00 0.00 51 1013.1
20260901170944 81 213 0.0 0.0 0.00 0.00 0.00 52 1013.0
20260901170439 80 16 1.0 2.0 0.00 0.00 0.00 52 1013.2
20260901165938 80 167 1.0 1.0 0.00 0.00 0.00 55 1013.2
20260901165434 80 180 1.0 1.0 0.00 0.00 0.00 51 1013.5
20260901164929 79 60 1.0 2.0 0.00 0.00 0.00 52 1013.2
20260901164424 79 296 2.0 2.0 0.00 0.00 0.00 56 1013.2
20260901163919 78 231 1.0 1.0 0.00 0.00 0.00 55 1013.2
20260901163414 78 350 3.0 3.0 0.00 0.00 0.00 61 1013.0
20260901162909 78 269 1.0 1.0 0.00 0.00 0.00 62 1013.1
20260901162408 78 46 2.0 2.0 0.00 0.00 0.00 66 1013.4
20260901161902 78 336 3.0 3.0 0.00 0.00 0.00 65 1013.0
20260901161401 77 20 3.0 5.0 0.00 0.00 0.00 65 1013.1
20260901160856 77 3 2.0 2.0 0.00 0.00 0.00 64 1013.2
20260901160353 77 52 1.0 2.0 0.00 0.00 0.00 66 1013.1
20260901155852 77 55 2.0 3.0 0.00 0.00 0.00 70 1013.0
20260901155346 77 244 0.0 0.0 0.00 0.00 0.00 68 1013.1
20260901154843 76 261 1.0 1.0 0.00 0.00 0.00 69 1013.2
20260901154342 76 306 1.0 2.0 0.00 0.00 0.00 71 1013.4
20260901153837 76 253 3.0 3.0 0.00 0.00 0.00 72 1013.2
20260901153332 75 351 2.0 2.0 0.00 0.00 0.00 70 1013.1
20260901152831 75 316 1.0 2.0 0.00 0.00 0.00 72 1013.4
20260901152330 75 21 2.0 2.0 0.00 0.00 0.00 74 1013.4
20260901151826 75 336 1.0 1.0 0.00 0.00 0.00 74 1013.1
20260901151320 75 339 3.0 3.0 0.00 0.00 0.00 70 1013.4
20260901150820 74 247 1.0 1.0 0.00 0.00 0.00 75 1013.2
20260901150318 74 14 3.0 3.0 0.00 0.00 0.00 72 1013.2
20260901145815 74 232 1.0 1.0 0.00 0.00 0.00 72 1013.2
20260901145309 74 319 2.0 2.0 0.00 0.00 0.00 76 1013.6
20260901144805 73 262 2.0 2.0 0.00 0.00 0.00 77 1013.2
20260901144301 73 229 1.0 2.0 0.00 0.00 0.00 77 1013.5
20260901143756 72 228 1.0 1.0 0.00 0.00 0.00 77 1013.4
20260901143252 72 276 2.0 2.0 0.00 0.00 0.00 79 1013.5
20260901142749 71 224 0.0 0.0 0.00 0.00 0.00 81 1013.6
20260901142247 71 239 1.0 1.0 0.00 0.00 0.00 82 1013.6
20260901141742 70 224 0.0 0.0 0.00 0.00 0.00 83 1013.5
20260901141237 70 224 0.0 0.0 0.00 0.00 0.00 84 1013.5
20260901140736 70 267 1.0 1.0 0.00 0.00 0.00 84 1013.5
20260901140234 69 229 0.0 1.0 0.00 0.00 0.00 83 1013.6
20260901135730 69 226 0.0 1.0 0.00 0.00 0.00 86 1013.6
20260901135230 68 249 0.0 1.0 0.00 0.00 0.00 87 1013.4
20260901134725 68 237 1.0 1.0 0.00 0.00 0.00 90 1013.4
20260901134220 67 222 0.0 0.0 0.00 0.00 0.00 92 1013.6
20260901133720 66 237 0.0 1.0 0.00 0.00 0.00 93 1013.5
20260901133219 65 245 1.0 1.0 0.00 0.00 0.00 95 1013.4
20260901132718 65 222 0.0 0.0 0.00 0.00 0.00 96 1013.4
20260901132212 65 228 1.0 1.0 0.00 0.00 0.00 97 1013.4
20260901131707 64 228 0.0 1.0 0.00 0.00 0.00 98 1013.2
20260901131207 64 223 0.0 0.0 0.00 0.00 0.00 98 1013.4
20260901130702 64 209 0.0 0.0 0.00 0.00 0.00 98 1013.2
20260901130200 63 209 0.0 0.0 0.00 0.00 0.00 99 1013.1
20260901125658 63 209 0.0 0.0 0.00 0.00 0.00 99 1013.4
20260901125154 63 210 0.0 0.0 0.00 0.00 0.00 99 1013.2
20260901124649 63 209 0.0 0.0 0.00 0.00 0.00 99 1013.0
20260901124143 62 209 0.0 0.0 0.00 0.00 0.00 99 1013.2
20260901123638 61 209 0.0 0.0 0.00 0.00 0.00 99 1013.2
20260901123138 61 209 0.0 0.0 0.00 0.00 0.00 99 1012.9
20260901122636 61 209 0.0 0.0 0.00 0.00 0.00 99 1013.1
20260901122131 61 209 0.0 0.0 0.00 0.00 0.00 99 1013.1
20260901121626 61 209 0.0 0.0 0.00 0.00 0.00 99 1012.9
20260901121121 61 209 0.0 0.0 0.00 0.00 0.00 99 1012.9
20260901120621 61 209 0.0 0.0 0.00 0.00 0.00 99 1013.0
20260901120116 60 209 0.0 0.0 0.00 0.00 0.00 99 1012.9
20260901115611 60 209 0.0 0.0 0.00 0.00 0.00 99 1012.8
20260901115108 60 209 1.0 1.0 0.00 0.00 0.00 99 1012.6
20260901114603 60 209 1.0 1.0 0.00 0.00 0.00 99 1012.6
20260901114057 60 209 1.0 1.0 0.00 0.00 0.00 99 1012.6
20260901113556 60 209 0.0 0.0 0.00 0.00 0.00 99 1012.8
20260901113052 59 209 0.0 0.0 0.00 0.00 0.00 99 1012.7
20260901112551 60 209 0.0 0.0 0.00 0.00 0.00 99 1012.5
20260901112046 61 209 0.0 0.0 0.00 0.00 0.00 99 1012.4
20260901111545 61 209 1.0 1.0 0.00 0.00 0.00 99 1012.3
20260901111043 60 210 1.0 1.0 0.00 0.00 0.00 99 1012.6
20260901110539 60 219 0.0 0.0 0.00 0.00 0.00 99 1012.5
20260901110035 60 220 0.0 0.0 0.00 0.00 0.00 99 1012.7
20260901105531 60 220 0.0 0.0 0.00 0.00 0.00 98 1012.4
20260901105030 60 220 0.0 0.0 0.00 0.00 0.00 99 1012.4
20260901104527 60 220 0.0 0.0 0.00 0.00 0.00 98 1012.6
20260901104022 59 220 0.0 0.0 0.00 0.00 0.00 98 1012.3
20260901103522 61 219 0.0 0.0 0.00 0.00 0.00 98 1012.3
20260901103017 62 218 1.0 1.0 0.00 0.00 0.00 98 1012.0
20260901102512 61 219 1.0 1.0 0.00 0.00 0.00 99 1012.1
20260901102007 61 222 0.0 0.0 0.00 0.00 0.00 98 1012.1
20260901101503 61 222 0.0 0.0 0.00 0.00 0.00 98 1012.2
20260901101002 60 222 0.0 1.0 0.00 0.00 0.00 98 1012.2
20260901100456 60 222 0.0 0.0 0.00 0.00 0.00 98 1012.1
20260901095955 61 208 0.0 0.0 0.00 0.00 0.00 98 1012.0
20260901095454 61 201 0.0 0.0 0.00 0.00 0.00 98 1012.0
20260901094952 61 201 0.0 0.0 0.00 0.00 0.00 98 1011.8
20260901094447 61 211 0.0 0.0 0.00 0.00 0.00 98 1011.7
20260901093946 61 211 0.0 0.0 0.00 0.00 0.00 98 1011.8
20260901093442 61 211 0.0 0.0 0.00 0.00 0.00 98 1011.8
20260901092941 61 211 0.0 0.0 0.00 0.00 0.00 98 1011.8
20260901092438 61 211 0.0 0.0 0.00 0.00 0.00 98 1011.6
20260901091933 61 211 1.0 1.0 0.00 0.00 0.00 98 1011.8
20260901091428 61 211 0.0 0.0 0.00 0.00 0.00 98 1011.8
20260901090923 60 211 0.0 0.0 0.00 0.00 0.00 98 1011.5
20260901090422 60 211 0.0 0.0 0.00 0.00 0.00 98 1011.7
20260901085918 60 211 0.0 0.0 0.00 0.00 0.00 98 1011.8
20260901085414 60 211 0.0 0.0 0.00 0.00 0.00 98 1011.9
20260901084910 61 211 0.0 0.0 0.00 0.00 0.00 98 1011.8
20260901084406 61 211 0.0 0.0 0.00 0.00 0.00 98 1011.8
20260901083901 60 211 0.0 0.0 0.00 0.00 0.00 98 1011.9
20260901083356 60 211 0.0 0.0 0.00 0.00 0.00 98 1011.9
20260901082854 60 211 0.0 0.0 0.00 0.00 0.00 98 1011.9
20260901082349 61 211 0.0 0.0 0.00 0.00 0.00 98 1011.8
20260901081844 61 211 0.0 0.0 0.00 0.00 0.00 98 1011.8
20260901081340 61 211 0.0 0.0 0.00 0.00 0.00 98 1011.6
20260901080840 61 211 0.0 0.0 0.00 0.00 0.00 98 1011.7
20260901080334 61 211 0.0 0.0 0.00 0.00 0.00 97 1011.7
20260901075828 61 211 0.0 0.0 0.00 0.00 0.00 98 1011.8
20260901075323 61 211 0.0 0.0 0.00 0.00 0.00 97 1011.7
20260901074819 61 211 0.0 0.0 0.00 0.00 0.00 97 1011.7
20260901074313 61 211 0.0 0.0 0.00 0.00 0.00 97 1011.7
20260901073809 62 211 0.0 0.0 0.00 0.00 0.00 97 1011.9
20260901073304 61 211 0.0 0.0 0.00 0.00 0.00 97 1012.1
20260901072800 61 211 0.0 0.0 0.00 0.00 0.00 97 1012.0
20260901072259 62 211 0.0 0.0 0.00 0.00 0.00 97 1012.0
20260901071755 62 211 0.0 0.0 0.00 0.00 0.00 97 1011.9
20260901071253 62 211 0.0 0.0 0.00 0.00 0.00 97 1012.0
20260901070752 62 211 0.0 0.0 0.00 0.00 0.00 97 1012.0
20260901070248 62 211 0.0 0.0 0.00 0.00 0.00 97 1012.1
20260901065747 62 211 0.0 0.0 0.00 0.00 0.00 97 1012.1
20260901065243 62 211 0.0 0.0 0.00 0.00 0.00 97 1012.2
20260901064739 62 211 0.0 0.0 0.00 0.00 0.00 97 1012.2
20260901064235 62 211 0.0 0.0 0.00 0.00 0.00 97 1012.3
20260901063732 63 211 0.0 0.0 0.00 0.00 0.00 97 1012.4
20260901063227 62 211 0.0 0.0 0.00 0.00 0.00 97 1012.2
20260901062724 63 211 0.0 0.0 0.00 0.00 0.00 97 1012.3
20260901062219 63 211 0.0 0.0 0.00 0.00 0.00 97 1012.2
20260901061715 63 211 0.0 0.0 0.00 0.00 0.00 97 1012.2
20260901061214 62 211 0.0 0.0 0.00 0.00 0.00 96 1012.2
20260901060709 63 211 0.0 0.0 0.00 0.00 0.00 96 1012.2
20260901060205 63 211 0.0 0.0 0.00 0.00 0.00 96 1012.2
20260901055700 64 211 0.0 0.0 0.00 0.00 0.00 96 1012.2
20260901055157 63 211 0.0 0.0 0.00 0.00 0.00 96 1012.2
20260901054654 63 211 0.0 0.0 0.00 0.00 0.00 96 1012.1
20260901054149 63 211 0.0 0.0 0.00 0.00 0.00 96 1012.1
20260901053645 63 211 0.0 0.0 0.00 0.00 0.00 95 1012.2
20260901053141 63 211 0.0 0.0 0.00 0.00 0.00 95 1012.1
20260901052636 63 211 0.0 0.0 0.00 0.00 0.00 95 1012.0
20260901052132 64 211 0.0 0.0 0.00 0.00 0.00 95 1012.0
20260901051631 64 211 0.0 0.0 0.00 0.00 0.00 95 1011.8
20260901051130 64 211 0.0 0.0 0.00 0.00 0.00 95 1011.9
20260901050626 65 211 0.0 0.0 0.00 0.00 0.00 95 1011.6
20260901050121 64 211 0.0 0.0 0.00 0.00 0.00 95 1011.8
20260901045615 64 211 0.0 0.0 0.00 0.00 0.00 94 1011.9
20260901045110 65 211 0.0 0.0 0.00 0.00 0.00 94 1011.6
20260901044606 65 211 0.0 0.0 0.00 0.00 0.00 94 1011.7
20260901044102 66 211 0.0 0.0 0.00 0.00 0.00 94 1011.7
20260901043557 66 211 0.0 0.0 0.00 0.00 0.00 94 1011.6
20260901043052 65 211 0.0 0.0 0.00 0.00 0.00 94 1011.6
20260901042551 66 211 0.0 0.0 0.00 0.00 0.00 93 1011.6
20260901042047 66 211 0.0 0.0 0.00 0.00 0.00 94 1011.2
20260901041542 66 211 0.0 0.0 0.00 0.00 0.00 94 1011.3
20260901041037 65 211 0.0 0.0 0.00 0.00 0.00 93 1011.6
20260901040536 65 211 0.0 0.0 0.00 0.00 0.00 93 1011.6
20260901040031 66 211 0.0 0.0 0.00 0.00 0.00 93 1011.5
20260901035528 66 211 0.0 0.0 0.00 0.00 0.00 93 1011.6
20260901035027 66 211 0.0 0.0 0.00 0.00 0.00 92 1011.6
20260901034522 66 211 0.0 0.0 0.00 0.00 0.00 92 1011.5
20260901034017 66 211 0.0 0.0 0.00 0.00 0.00 91 1011.6
20260901033515 67 211 0.0 0.0 0.00 0.00 0.00 90 1011.4
20260901033015 68 211 0.0 0.0 0.00 0.00 0.00 90 1011.6
20260901032509 68 211 0.0 0.0 0.00 0.00 0.00 90 1011.4
20260901032004 68 211 0.0 0.0 0.00 0.00 0.00 89 1011.6